Time,TemperatureF,DewpointF,PressureIn,WindDirection,WindDirectionDegrees,WindSpeedMPH,WindSpeedGustMPH,Humidity,HourlyPrecipIn,Conditions,Clouds,dailyrainin,SoftwareType,DateUTC
2013-10-16 00:03:00,54.2,51.0,27.17,North,-999,-999.0,-999.0,89,-99.99,,,-99.99,WSDL version 420,2013-10-16 04:03:00,
2013-10-16 00:13:00,54.2,51.0,27.17,North,-999,-999.0,-999.0,89,0.00,,,0.00,WSDL version 420,2013-10-16 04:13:00,
2013-10-16 00:18:00,54.2,51.0,27.17,North,-999,-999.0,-999.0,89,0.00,,,0.00,WSDL version 420,2013-10-16 04:18:00,
2013-10-16 00:23:00,54.1,50.9,27.17,North,-999,-999.0,-999.0,89,-99.99,,,-99.99,WSDL version 420,2013-10-16 04:23:00,
2013-10-16 00:28:00,54.1,50.9,27.17,North,-999,-999.0,-999.0,89,-99.99,,,-99.99,WSDL version 420,2013-10-16 04:28:00,
2013-10-16 00:33:00,54.1,50.9,27.17,North,-999,-999.0,-999.0,89,0.00,,,0.00,WSDL version 420,2013-10-16 04:33:00,
2013-10-16 00:38:00,54.1,50.9,27.14,North,-999,-999.0,-999.0,89,0.00,,,0.00,WSDL version 420,2013-10-16 04:38:00,
2013-10-16 00:43:00,54.1,50.9,27.14,North,-999,-999.0,-999.0,89,-99.99,,,-99.99,WSDL version 420,2013-10-16 04:43:00,
2013-10-16 00:48:00,54.0,50.8,27.14,North,-999,-999.0,-999.0,89,-99.99,,,-99.99,WSDL version 420,2013-10-16 04:48:00,
2013-10-16 00:53:00,53.9,50.7,27.17,North,-999,-999.0,-999.0,89,-99.99,,,-99.99,WSDL version 420,2013-10-16 04:53:00,
2013-10-16 00:58:00,53.9,50.7,27.17,North,-999,-999.0,-999.0,89,0.00,,,0.00,WSDL version 420,2013-10-16 04:58:00,
2013-10-16 01:03:00,53.9,50.9,27.17,North,-999,-999.0,-999.0,90,0.00,,,0.00,WSDL version 420,2013-10-16 05:03:00,
2013-10-16 01:08:00,53.9,51.0,27.14,North,-999,-999.0,-999.0,89,0.00,,,0.00,WSDL version 420,2013-10-16 05:08:00,
2013-10-16 01:13:00,53.8,50.6,27.14,North,-999,-999.0,-999.0,89,0.00,,,0.00,WSDL version 420,2013-10-16 05:13:00,
2013-10-16 01:18:00,53.7,50.5,27.14,North,-999,-999.0,-999.0,89,0.00,,,0.00,WSDL version 420,2013-10-16 05:18:00,
2013-10-16 01:23:00,53.5,50.3,27.14,North,-999,-999.0,-999.0,89,0.00,,,0.00,WSDL version 420,2013-10-16 05:23:00,
2013-10-16 01:28:00,53.4,50.2,27.14,North,-999,-999.0,-999.0,89,0.00,,,0.00,WSDL version 420,2013-10-16 05:28:00,
2013-10-16 01:33:00,53.2,50.0,27.14,North,-999,-999.0,-999.0,89,0.00,,,0.00,WSDL version 420,2013-10-16 05:33:00,
2013-10-16 01:38:00,53.2,50.0,27.14,North,-999,-999.0,-999.0,89,-99.99,,,-99.99,WSDL version 420,2013-10-16 05:38:00,
2013-10-16 01:43:00,53.2,50.0,27.14,North,-999,-999.0,-999.0,89,-99.99,,,-99.99,WSDL version 420,2013-10-16 05:43:00,
2013-10-16 01:48:00,53.1,49.9,27.14,North,-999,-999.0,-999.0,89,0.00,,,0.00,WSDL version 420,2013-10-16 05:48:00,
2013-10-16 01:53:00,53.0,49.8,27.14,North,-999,-999.0,-999.0,89,0.00,,,0.00,WSDL version 420,2013-10-16 05:53:00,
2013-10-16 01:58:00,52.8,49.7,27.14,North,-999,-999.0,-999.0,89,0.00,,,0.00,WSDL version 420,2013-10-16 05:58:00,
2013-10-16 02:03:00,52.8,49.6,27.14,North,-999,-999.0,-999.0,89,0.00,,,0.00,WSDL version 420,2013-10-16 06:03:00,
2013-10-16 02:08:00,52.7,49.5,27.14,North,-999,-999.0,-999.0,89,0.00,,,0.00,WSDL version 420,2013-10-16 06:08:00,
2013-10-16 02:13:00,52.5,49.2,27.14,North,-999,-999.0,-999.0,88,0.00,,,0.00,WSDL version 420,2013-10-16 06:13:00,
2013-10-16 02:18:00,52.4,48.8,27.14,North,-999,-999.0,-999.0,88,0.00,,,0.00,WSDL version 420,2013-10-16 06:18:00,
2013-10-16 02:23:00,52.3,49.0,27.14,North,-999,-999.0,-999.0,89,0.00,,,0.00,WSDL version 420,2013-10-16 06:23:00,
2013-10-16 02:28:00,52.2,49.0,27.14,North,-999,-999.0,-999.0,89,0.00,,,0.00,WSDL version 420,2013-10-16 06:28:00,
2013-10-16 02:33:00,52.0,48.5,27.14,North,-999,-999.0,-999.0,88,0.00,,,0.00,WSDL version 420,2013-10-16 06:33:00,
2013-10-16 02:38:00,51.9,48.4,27.14,North,-999,-999.0,-999.0,88,0.00,,,0.00,WSDL version 420,2013-10-16 06:38:00,
2013-10-16 02:43:00,51.7,48.6,27.14,North,-999,-999.0,-999.0,89,0.00,,,0.00,WSDL version 420,2013-10-16 06:43:00,
2013-10-16 02:48:00,51.6,48.2,27.14,North,-999,-999.0,-999.0,88,0.00,,,0.00,WSDL version 420,2013-10-16 06:48:00,
2013-10-16 02:53:00,51.5,48.0,27.14,North,-999,-999.0,-999.0,88,0.00,,,0.00,WSDL version 420,2013-10-16 06:53:00,
2013-10-16 02:58:00,51.4,47.9,27.14,North,-999,-999.0,-999.0,88,0.00,,,0.00,WSDL version 420,2013-10-16 06:58:00,
2013-10-16 03:03:00,51.4,48.0,27.14,North,-999,-999.0,-999.0,89,0.00,,,0.00,WSDL version 420,2013-10-16 07:03:00,
2013-10-16 03:08:00,51.5,48.3,27.14,North,-999,-999.0,-999.0,89,0.00,,,0.00,WSDL version 420,2013-10-16 07:08:00,
2013-10-16 03:13:00,51.4,48.2,27.14,North,-999,-999.0,-999.0,89,0.00,,,0.00,WSDL version 420,2013-10-16 07:13:00,
2013-10-16 03:18:00,51.3,48.1,27.14,North,-999,-999.0,-999.0,89,0.00,,,0.00,WSDL version 420,2013-10-16 07:18:00,
2013-10-16 03:23:00,51.1,48.0,27.14,North,-999,-999.0,-999.0,89,0.00,,,0.00,WSDL version 420,2013-10-16 07:23:00,
2013-10-16 03:28:00,51.0,47.5,27.14,North,-999,-999.0,-999.0,88,0.00,,,0.00,WSDL version 420,2013-10-16 07:28:00,
2013-10-16 03:33:00,51.0,47.5,27.14,North,-999,-999.0,-999.0,88,-99.99,,,-99.99,WSDL version 420,2013-10-16 07:33:00,
2013-10-16 03:38:00,50.8,47.5,27.11,North,-999,-999.0,-999.0,89,0.00,,,0.00,WSDL version 420,2013-10-16 07:38:00,
2013-10-16 03:43:00,50.9,47.8,27.11,North,-999,-999.0,-999.0,89,0.00,,,0.00,WSDL version 420,2013-10-16 07:43:00,
2013-10-16 03:48:00,50.8,47.5,27.11,North,-999,-999.0,-999.0,88,0.00,,,0.00,WSDL version 420,2013-10-16 07:48:00,
2013-10-16 03:53:00,50.6,47.2,27.11,North,-999,-999.0,-999.0,88,0.00,,,0.00,WSDL version 420,2013-10-16 07:53:00,
2013-10-16 03:58:00,50.6,47.2,27.11,North,-999,-999.0,-999.0,88,0.00,,,0.00,WSDL version 420,2013-10-16 07:58:00,
2013-10-16 04:03:00,50.6,47.3,27.11,North,-999,-999.0,-999.0,89,0.00,,,0.00,WSDL version 420,2013-10-16 08:03:00,
2013-10-16 04:08:00,50.6,47.5,27.11,North,-999,-999.0,-999.0,89,0.00,,,0.00,WSDL version 420,2013-10-16 08:08:00,
2013-10-16 04:13:00,50.6,47.5,27.11,North,-999,-999.0,-999.0,89,0.00,,,0.00,WSDL version 420,2013-10-16 08:13:00,
2013-10-16 04:18:00,50.4,47.3,27.11,North,-999,-999.0,-999.0,89,0.00,,,0.00,WSDL version 420,2013-10-16 08:18:00,
2013-10-16 04:23:00,50.4,47.2,27.11,North,-999,-999.0,-999.0,89,0.00,,,0.00,WSDL version 420,2013-10-16 08:23:00,
2013-10-16 04:28:00,50.4,47.3,27.11,North,-999,-999.0,-999.0,89,0.00,,,0.00,WSDL version 420,2013-10-16 08:28:00,
2013-10-16 04:33:00,50.3,47.1,27.11,North,-999,-999.0,-999.0,89,0.00,,,0.00,WSDL version 420,2013-10-16 08:33:00,
2013-10-16 04:38:00,50.3,47.1,27.11,North,-999,-999.0,-999.0,89,0.00,,,0.00,WSDL version 420,2013-10-16 08:38:00,
2013-10-16 04:43:00,50.3,46.9,27.11,North,-999,-999.0,-999.0,88,0.00,,,0.00,WSDL version 420,2013-10-16 08:43:00,
2013-10-16 04:48:00,50.1,46.7,27.11,North,-999,-999.0,-999.0,88,0.00,,,0.00,WSDL version 420,2013-10-16 08:48:00,
2013-10-16 04:53:00,50.1,46.6,27.11,North,-999,-999.0,-999.0,88,0.00,,,0.00,WSDL version 420,2013-10-16 08:53:00,
2013-10-16 04:58:00,50.0,46.8,27.11,North,-999,-999.0,-999.0,89,0.00,,,0.00,WSDL version 420,2013-10-16 08:58:00,
2013-10-16 05:03:00,50.1,46.9,27.11,North,-999,-999.0,-999.0,89,0.00,,,0.00,WSDL version 420,2013-10-16 09:03:00,
2013-10-16 05:08:00,50.1,47.0,27.11,North,-999,-999.0,-999.0,89,0.00,,,0.00,WSDL version 420,2013-10-16 09:08:00,
2013-10-16 05:13:00,49.9,47.1,27.11,North,-999,-999.0,-999.0,89,0.00,,,0.00,WSDL version 420,2013-10-16 09:13:00,
2013-10-16 05:18:00,49.9,46.7,27.11,North,-999,-999.0,-999.0,89,0.00,,,0.00,WSDL version 420,2013-10-16 09:18:00,
2013-10-16 05:23:00,49.7,46.6,27.11,North,-999,-999.0,-999.0,89,0.00,,,0.00,WSDL version 420,2013-10-16 09:23:00,
2013-10-16 05:28:00,49.7,46.6,27.11,North,-999,-999.0,-999.0,89,0.00,,,0.00,WSDL version 420,2013-10-16 09:28:00,
2013-10-16 05:33:00,49.7,46.5,27.11,North,-999,-999.0,-999.0,89,0.00,,,0.00,WSDL version 420,2013-10-16 09:33:00,
2013-10-16 05:38:00,49.6,46.4,27.11,North,-999,-999.0,-999.0,89,0.00,,,0.00,WSDL version 420,2013-10-16 09:38:00,
2013-10-16 05:43:00,49.6,46.4,27.11,North,-999,-999.0,-999.0,89,0.00,,,0.00,WSDL version 420,2013-10-16 09:43:00,
2013-10-16 05:48:00,49.6,46.5,27.11,North,-999,-999.0,-999.0,90,0.00,,,0.00,WSDL version 420,2013-10-16 09:48:00,
2013-10-16 05:53:00,49.6,46.8,27.11,North,-999,-999.0,-999.0,90,0.00,,,0.00,WSDL version 420,2013-10-16 09:53:00,
2013-10-16 05:58:00,49.6,46.8,27.11,North,-999,-999.0,-999.0,90,0.00,,,0.00,WSDL version 420,2013-10-16 09:58:00,
2013-10-16 06:03:00,49.6,46.8,27.11,North,-999,-999.0,-999.0,90,0.00,,,0.00,WSDL version 420,2013-10-16 10:03:00,
2013-10-16 06:08:00,49.6,46.8,27.11,North,-999,-999.0,-999.0,90,0.00,,,0.00,WSDL version 420,2013-10-16 10:08:00,
2013-10-16 06:13:00,49.6,46.8,27.11,North,-999,-999.0,-999.0,90,0.00,,,0.00,WSDL version 420,2013-10-16 10:13:00,
2013-10-16 06:18:00,49.6,46.8,27.11,North,-999,-999.0,-999.0,90,0.00,,,0.00,WSDL version 420,2013-10-16 10:18:00,
2013-10-16 06:23:00,49.5,46.6,27.11,North,-999,-999.0,-999.0,90,0.00,,,0.00,WSDL version 420,2013-10-16 10:23:00,
2013-10-16 06:28:00,49.4,46.6,27.11,North,-999,-999.0,-999.0,90,0.00,,,0.00,WSDL version 420,2013-10-16 10:28:00,
2013-10-16 06:33:00,49.4,46.6,27.11,North,-999,-999.0,-999.0,90,0.00,,,0.00,WSDL version 420,2013-10-16 10:33:00,
2013-10-16 06:38:00,49.3,46.5,27.11,North,-999,-999.0,-999.0,90,0.00,,,0.00,WSDL version 420,2013-10-16 10:38:00,
2013-10-16 06:43:00,49.2,46.4,27.11,North,-999,-999.0,-999.0,90,0.00,,,0.00,WSDL version 420,2013-10-16 10:43:00,
2013-10-16 06:48:00,49.2,46.4,27.11,North,-999,-999.0,-999.0,90,0.00,,,0.00,WSDL version 420,2013-10-16 10:48:00,
2013-10-16 06:53:00,49.2,46.4,27.11,North,-999,-999.0,-999.0,90,0.00,,,0.00,WSDL version 420,2013-10-16 10:53:00,
2013-10-16 06:58:00,49.1,46.3,27.11,North,-999,-999.0,-999.0,90,0.00,,,0.00,WSDL version 420,2013-10-16 10:58:00,
2013-10-16 07:03:00,49.1,46.3,27.11,North,-999,-999.0,-999.0,90,0.00,,,0.00,WSDL version 420,2013-10-16 11:03:00,
2013-10-16 07:08:00,49.0,46.2,27.11,North,-999,-999.0,-999.0,90,0.00,,,0.00,WSDL version 420,2013-10-16 11:08:00,
2013-10-16 07:13:00,49.0,46.4,27.11,North,-999,-999.0,-999.0,91,0.00,,,0.00,WSDL version 420,2013-10-16 11:13:00,
2013-10-16 07:18:00,49.0,46.5,27.11,North,-999,-999.0,-999.0,91,0.00,,,0.00,WSDL version 420,2013-10-16 11:18:00,
2013-10-16 07:23:00,49.0,46.5,27.11,North,-999,-999.0,-999.0,91,0.00,,,0.00,WSDL version 420,2013-10-16 11:23:00,
2013-10-16 07:28:00,49.0,46.5,27.11,North,-999,-999.0,-999.0,91,0.00,,,0.00,WSDL version 420,2013-10-16 11:28:00,
2013-10-16 07:33:00,48.8,46.0,27.11,North,-999,-999.0,-999.0,90,0.00,,,0.00,WSDL version 420,2013-10-16 11:33:00,
2013-10-16 07:38:00,48.8,46.2,27.11,North,-999,-999.0,-999.0,91,0.00,,,0.00,WSDL version 420,2013-10-16 11:38:00,
2013-10-16 07:43:00,49.0,46.5,27.11,North,-999,-999.0,-999.0,91,0.00,,,0.00,WSDL version 420,2013-10-16 11:43:00,
2013-10-16 07:48:00,49.0,46.5,27.11,North,-999,-999.0,-999.0,91,0.00,,,0.00,WSDL version 420,2013-10-16 11:48:00,
2013-10-16 07:53:00,49.1,46.8,27.11,North,-999,-999.0,-999.0,92,0.00,,,0.00,WSDL version 420,2013-10-16 11:53:00,
2013-10-16 07:58:00,49.3,47.1,27.11,North,-999,-999.0,-999.0,92,0.00,,,0.00,WSDL version 420,2013-10-16 11:58:00,
2013-10-16 08:03:00,49.5,47.3,27.11,North,-999,-999.0,-999.0,92,0.00,,,0.00,WSDL version 420,2013-10-16 12:03:00,
2013-10-16 08:08:00,49.6,47.8,27.11,North,-999,-999.0,-999.0,93,0.00,,,0.00,WSDL version 420,2013-10-16 12:08:00,
2013-10-16 08:13:00,49.9,48.0,27.11,North,-999,-999.0,-999.0,93,0.00,,,0.00,WSDL version 420,2013-10-16 12:13:00,
2013-10-16 08:18:00,50.1,48.3,27.11,North,-999,-999.0,-999.0,93,0.00,,,0.00,WSDL version 420,2013-10-16 12:18:00,
2013-10-16 08:23:00,50.4,48.6,27.14,North,-999,-999.0,-999.0,94,0.00,,,0.00,WSDL version 420,2013-10-16 12:23:00,
2013-10-16 08:28:00,50.6,49.1,27.14,North,-999,-999.0,-999.0,94,0.00,,,0.00,WSDL version 420,2013-10-16 12:28:00,
2013-10-16 08:33:00,50.9,49.4,27.14,North,-999,-999.0,-999.0,94,0.00,,,0.00,WSDL version 420,2013-10-16 12:33:00,
2013-10-16 08:38:00,51.2,49.6,27.14,North,-999,-999.0,-999.0,94,-99.99,,,-99.99,WSDL version 420,2013-10-16 12:38:00,
2013-10-16 08:43:00,51.5,49.9,27.14,North,-999,-999.0,-999.0,94,0.00,,,0.00,WSDL version 420,2013-10-16 12:43:00,
2013-10-16 08:48:00,51.7,50.1,27.14,North,-999,-999.0,-999.0,94,0.00,,,0.00,WSDL version 420,2013-10-16 12:48:00,
2013-10-16 08:53:00,51.9,50.4,27.14,North,-999,-999.0,-999.0,94,0.00,,,0.00,WSDL version 420,2013-10-16 12:53:00,
2013-10-16 08:58:00,52.3,50.7,27.14,North,-999,-999.0,-999.0,94,0.00,,,0.00,WSDL version 420,2013-10-16 12:58:00,
2013-10-16 09:03:00,52.5,50.9,27.14,North,-999,-999.0,-999.0,94,-99.99,,,-99.99,WSDL version 420,2013-10-16 13:03:00,
2013-10-16 09:08:00,52.8,51.3,27.14,North,-999,-999.0,-999.0,96,-99.99,,,-99.99,WSDL version 420,2013-10-16 13:08:00,
2013-10-16 09:13:00,53.1,51.8,27.14,North,-999,-999.0,-999.0,96,0.00,,,0.00,WSDL version 420,2013-10-16 13:13:00,
2013-10-16 09:18:00,53.3,52.1,27.14,North,-999,-999.0,-999.0,96,0.00,,,0.00,WSDL version 420,2013-10-16 13:18:00,
2013-10-16 09:23:00,53.6,52.3,27.14,North,-999,-999.0,-999.0,94,0.00,,,0.00,WSDL version 420,2013-10-16 13:23:00,
2013-10-16 09:28:00,53.8,52.2,27.14,North,-999,-999.0,-999.0,94,0.00,,,0.00,WSDL version 420,2013-10-16 13:28:00,
2013-10-16 09:33:00,54.1,52.6,27.14,North,-999,-999.0,-999.0,94,-99.99,,,-99.99,WSDL version 420,2013-10-16 13:33:00,
2013-10-16 09:38:00,54.3,52.7,27.14,North,-999,-999.0,-999.0,94,0.00,,,0.00,WSDL version 420,2013-10-16 13:38:00,
2013-10-16 09:43:00,54.5,52.9,27.14,North,-999,-999.0,-999.0,94,-99.99,,,-99.99,WSDL version 420,2013-10-16 13:43:00,
2013-10-16 09:48:00,54.6,53.0,27.14,North,-999,-999.0,-999.0,94,0.00,,,0.00,WSDL version 420,2013-10-16 13:48:00,
2013-10-16 09:53:00,54.6,53.0,27.14,North,-999,-999.0,-999.0,94,0.00,,,0.00,WSDL version 420,2013-10-16 13:53:00,
2013-10-16 09:58:00,54.6,53.0,27.14,North,-999,-999.0,-999.0,94,0.00,,,0.00,WSDL version 420,2013-10-16 13:58:00,
2013-10-16 10:03:00,54.9,53.4,27.14,North,-999,-999.0,-999.0,94,0.00,,,0.00,WSDL version 420,2013-10-16 14:03:00,
2013-10-16 10:08:00,55.3,53.6,27.14,North,-999,-999.0,-999.0,93,0.00,,,0.00,WSDL version 420,2013-10-16 14:08:00,
2013-10-16 10:13:00,55.8,53.9,27.14,North,-999,-999.0,-999.0,93,0.00,,,0.00,WSDL version 420,2013-10-16 14:13:00,
2013-10-16 10:18:00,56.0,54.1,27.14,North,-999,-999.0,-999.0,93,0.00,,,0.00,WSDL version 420,2013-10-16 14:18:00,
2013-10-16 10:23:00,56.4,54.3,27.14,North,-999,-999.0,-999.0,92,0.00,,,0.00,WSDL version 420,2013-10-16 14:23:00,
2013-10-16 10:28:00,56.9,54.6,27.14,North,-999,-999.0,-999.0,92,0.00,,,0.00,WSDL version 420,2013-10-16 14:28:00,
2013-10-16 10:33:00,-999.0,-99.9,27.14,North,-999,-999.0,-999.0,-999,0.00,,,0.00,WSDL version 420,2013-10-16 14:33:00,
2013-10-16 10:38:00,57.8,54.6,27.14,North,-999,-999.0,-999.0,89,0.00,,,0.00,WSDL version 420,2013-10-16 14:38:00,
2013-10-16 10:43:00,58.3,54.7,27.14,North,-999,-999.0,-999.0,87,0.00,,,0.00,WSDL version 420,2013-10-16 14:43:00,
2013-10-16 10:48:00,58.7,54.0,27.14,North,-999,-999.0,-999.0,83,0.00,,,0.00,WSDL version 420,2013-10-16 14:48:00,
2013-10-16 10:53:00,59.0,53.3,27.14,North,-999,-999.0,-999.0,80,0.00,,,0.00,WSDL version 420,2013-10-16 14:53:00,
2013-10-16 10:58:00,59.2,52.6,27.14,North,-999,-999.0,-999.0,77,0.00,,,0.00,WSDL version 420,2013-10-16 14:58:00,
2013-10-16 11:03:00,59.5,52.2,27.14,North,-999,-999.0,-999.0,76,0.00,,,0.00,WSDL version 420,2013-10-16 15:03:00,
2013-10-16 11:08:00,59.7,50.9,27.14,North,-999,-999.0,-999.0,71,0.00,,,0.00,WSDL version 420,2013-10-16 15:08:00,
2013-10-16 11:13:00,60.2,51.4,27.14,North,-999,-999.0,-999.0,73,0.00,,,0.00,WSDL version 420,2013-10-16 15:13:00,
2013-10-16 11:18:00,60.6,51.5,27.14,North,-999,-999.0,-999.0,71,0.00,,,0.00,WSDL version 420,2013-10-16 15:18:00,
2013-10-16 11:23:00,61.0,51.1,27.14,North,-999,-999.0,-999.0,69,0.00,,,0.00,WSDL version 420,2013-10-16 15:23:00,
2013-10-16 11:28:00,61.4,51.0,27.14,North,-999,-999.0,-999.0,69,0.00,,,0.00,WSDL version 420,2013-10-16 15:28:00,
2013-10-16 11:33:00,61.6,50.8,27.14,North,-999,-999.0,-999.0,67,0.00,,,0.00,WSDL version 420,2013-10-16 15:33:00,
2013-10-16 11:38:00,61.8,50.4,27.14,North,-999,-999.0,-999.0,66,0.00,,,0.00,WSDL version 420,2013-10-16 15:38:00,
2013-10-16 11:43:00,61.9,50.7,27.14,North,-999,-999.0,-999.0,67,0.00,,,0.00,WSDL version 420,2013-10-16 15:43:00,
2013-10-16 11:48:00,62.0,50.8,27.14,North,-999,-999.0,-999.0,66,0.00,,,0.00,WSDL version 420,2013-10-16 15:48:00,
2013-10-16 11:53:00,62.3,51.3,27.11,North,-999,-999.0,-999.0,68,0.00,,,0.00,WSDL version 420,2013-10-16 15:53:00,
2013-10-16 11:58:00,62.9,51.7,27.11,North,-999,-999.0,-999.0,67,0.00,,,0.00,WSDL version 420,2013-10-16 15:58:00,
2013-10-16 12:03:00,63.2,51.8,27.11,North,-999,-999.0,-999.0,65,0.00,,,0.00,WSDL version 420,2013-10-16 16:03:00,
2013-10-16 12:08:00,63.0,50.2,27.11,North,-999,-999.0,-999.0,63,0.00,,,0.00,WSDL version 420,2013-10-16 16:08:00,
2013-10-16 12:13:00,63.1,50.7,27.11,North,-999,-999.0,-999.0,65,0.00,,,0.00,WSDL version 420,2013-10-16 16:13:00,
2013-10-16 12:18:00,63.1,50.8,27.11,North,-999,-999.0,-999.0,63,0.00,,,0.00,WSDL version 420,2013-10-16 16:18:00,
2013-10-16 12:23:00,63.4,50.2,27.11,North,-999,-999.0,-999.0,61,0.00,,,0.00,WSDL version 420,2013-10-16 16:23:00,
2013-10-16 12:28:00,63.4,49.9,27.11,North,-999,-999.0,-999.0,61,0.00,,,0.00,WSDL version 420,2013-10-16 16:28:00,
2013-10-16 12:33:00,63.2,49.6,27.11,North,-999,-999.0,-999.0,61,0.00,,,0.00,WSDL version 420,2013-10-16 16:33:00,
2013-10-16 12:38:00,63.2,49.6,27.11,North,-999,-999.0,-999.0,60,0.00,,,0.00,WSDL version 420,2013-10-16 16:38:00,
2013-10-16 12:43:00,63.2,49.5,27.11,North,-999,-999.0,-999.0,61,0.00,,,0.00,WSDL version 420,2013-10-16 16:43:00,
2013-10-16 12:48:00,63.4,49.4,27.11,North,-999,-999.0,-999.0,59,0.00,,,0.00,WSDL version 420,2013-10-16 16:48:00,
2013-10-16 12:53:00,63.9,49.6,27.11,North,-999,-999.0,-999.0,59,0.00,,,0.00,WSDL version 420,2013-10-16 16:53:00,
2013-10-16 12:58:00,64.0,49.9,27.11,North,-999,-999.0,-999.0,60,0.00,,,0.00,WSDL version 420,2013-10-16 16:58:00,
2013-10-16 13:03:00,64.0,49.7,27.11,North,-999,-999.0,-999.0,58,0.00,,,0.00,WSDL version 420,2013-10-16 17:03:00,
2013-10-16 13:08:00,63.8,49.5,27.08,North,-999,-999.0,-999.0,60,0.00,,,0.00,WSDL version 420,2013-10-16 17:08:00,
2013-10-16 13:13:00,63.7,49.4,27.08,North,-999,-999.0,-999.0,60,0.00,,,0.00,WSDL version 420,2013-10-16 17:13:00,
2013-10-16 13:18:00,63.5,49.1,27.08,North,-999,-999.0,-999.0,58,0.00,,,0.00,WSDL version 420,2013-10-16 17:18:00,
2013-10-16 13:23:00,63.2,48.6,27.11,North,-999,-999.0,-999.0,59,0.00,,,0.00,WSDL version 420,2013-10-16 17:23:00,
2013-10-16 13:28:00,63.4,49.8,27.11,North,-999,-999.0,-999.0,62,0.00,,,0.00,WSDL version 420,2013-10-16 17:28:00,
2013-10-16 13:33:00,63.6,50.5,27.11,North,-999,-999.0,-999.0,63,0.00,,,0.00,WSDL version 420,2013-10-16 17:33:00,
2013-10-16 13:38:00,64.0,50.4,27.11,North,-999,-999.0,-999.0,60,0.00,,,0.00,WSDL version 420,2013-10-16 17:38:00,
2013-10-16 13:43:00,63.8,49.6,27.11,North,-999,-999.0,-999.0,60,-99.99,,,-99.99,WSDL version 420,2013-10-16 17:43:00,
2013-10-16 13:48:00,63.6,49.1,27.11,North,-999,-999.0,-999.0,59,0.00,,,0.00,WSDL version 420,2013-10-16 17:48:00,
2013-10-16 13:53:00,63.8,49.3,27.11,North,-999,-999.0,-999.0,57,0.00,,,0.00,WSDL version 420,2013-10-16 17:53:00,
2013-10-16 13:58:00,-999.0,-99.9,27.11,North,-999,-999.0,-999.0,-999,0.00,,,0.00,WSDL version 420,2013-10-16 17:58:00,
2013-10-16 14:03:00,64.2,49.1,27.11,North,-999,-999.0,-999.0,58,0.00,,,0.00,WSDL version 420,2013-10-16 18:03:00,
2013-10-16 14:08:00,64.5,50.3,27.08,North,-999,-999.0,-999.0,60,0.00,,,0.00,WSDL version 420,2013-10-16 18:08:00,
2013-10-16 14:13:00,64.8,50.5,27.08,North,-999,-999.0,-999.0,59,0.00,,,0.00,WSDL version 420,2013-10-16 18:13:00,
2013-10-16 14:18:00,64.8,49.9,27.08,North,-999,-999.0,-999.0,58,0.00,,,0.00,WSDL version 420,2013-10-16 18:18:00,
2013-10-16 14:23:00,64.6,49.6,27.11,North,-999,-999.0,-999.0,59,0.00,,,0.00,WSDL version 420,2013-10-16 18:23:00,
2013-10-16 14:28:00,64.8,50.3,27.11,North,-999,-999.0,-999.0,60,0.00,,,0.00,WSDL version 420,2013-10-16 18:28:00,
2013-10-16 14:33:00,65.2,51.0,27.11,North,-999,-999.0,-999.0,60,0.00,,,0.00,WSDL version 420,2013-10-16 18:33:00,
2013-10-16 14:38:00,65.6,50.6,27.08,North,-999,-999.0,-999.0,58,0.00,,,0.00,WSDL version 420,2013-10-16 18:38:00,
2013-10-16 14:43:00,66.1,51.4,27.08,North,-999,-999.0,-999.0,59,0.00,,,0.00,WSDL version 420,2013-10-16 18:43:00,
2013-10-16 14:48:00,66.3,50.9,27.08,North,-999,-999.0,-999.0,56,0.00,,,0.00,WSDL version 420,2013-10-16 18:48:00,
2013-10-16 14:53:00,66.5,50.2,27.08,North,-999,-999.0,-999.0,55,0.00,,,0.00,WSDL version 420,2013-10-16 18:53:00,
2013-10-16 14:58:00,66.5,49.8,27.08,North,-999,-999.0,-999.0,55,0.00,,,0.00,WSDL version 420,2013-10-16 18:58:00,
2013-10-16 15:03:00,66.8,50.4,27.08,North,-999,-999.0,-999.0,56,0.00,,,0.00,WSDL version 420,2013-10-16 19:03:00,
2013-10-16 15:08:00,67.2,51.0,27.08,North,-999,-999.0,-999.0,56,0.00,,,0.00,WSDL version 420,2013-10-16 19:08:00,
2013-10-16 15:13:00,67.6,51.3,27.08,North,-999,-999.0,-999.0,56,0.00,,,0.00,WSDL version 420,2013-10-16 19:13:00,
2013-10-16 15:18:00,67.5,50.6,27.08,North,-999,-999.0,-999.0,54,0.00,,,0.00,WSDL version 420,2013-10-16 19:18:00,
2013-10-16 15:23:00,66.9,49.9,27.05,North,-999,-999.0,-999.0,54,0.00,,,0.00,WSDL version 420,2013-10-16 19:23:00,
2013-10-16 15:28:00,66.4,48.7,27.05,North,-999,-999.0,-999.0,53,0.00,,,0.00,WSDL version 420,2013-10-16 19:28:00,
2013-10-16 15:33:00,66.3,49.1,27.05,North,-999,-999.0,-999.0,54,0.00,,,0.00,WSDL version 420,2013-10-16 19:33:00,
2013-10-16 15:38:00,66.3,49.0,27.08,North,-999,-999.0,-999.0,54,0.00,,,0.00,WSDL version 420,2013-10-16 19:38:00,
2013-10-16 15:43:00,66.4,50.0,27.08,North,-999,-999.0,-999.0,55,0.00,,,0.00,WSDL version 420,2013-10-16 19:43:00,
2013-10-16 15:48:00,66.7,50.2,27.08,North,-999,-999.0,-999.0,55,0.00,,,0.00,WSDL version 420,2013-10-16 19:48:00,
2013-10-16 15:53:00,66.6,49.7,27.05,North,-999,-999.0,-999.0,55,0.00,,,0.00,WSDL version 420,2013-10-16 19:53:00,
2013-10-16 15:58:00,66.5,49.3,27.05,North,-999,-999.0,-999.0,53,0.00,,,0.00,WSDL version 420,2013-10-16 19:58:00,
2013-10-16 16:03:00,66.3,49.8,27.05,North,-999,-999.0,-999.0,55,0.00,,,0.00,WSDL version 420,2013-10-16 20:03:00,
2013-10-16 16:08:00,66.5,50.1,27.08,North,-999,-999.0,-999.0,56,0.00,,,0.00,WSDL version 420,2013-10-16 20:08:00,
2013-10-16 16:13:00,66.5,49.6,27.08,North,-999,-999.0,-999.0,55,0.00,,,0.00,WSDL version 420,2013-10-16 20:13:00,
2013-10-16 16:18:00,66.4,50.2,27.08,North,-999,-999.0,-999.0,55,0.00,,,0.00,WSDL version 420,2013-10-16 20:18:00,
2013-10-16 16:23:00,66.1,49.3,27.05,North,-999,-999.0,-999.0,55,0.00,,,0.00,WSDL version 420,2013-10-16 20:23:00,
2013-10-16 16:28:00,65.8,49.3,27.05,North,-999,-999.0,-999.0,55,0.00,,,0.00,WSDL version 420,2013-10-16 20:28:00,
2013-10-16 16:33:00,65.7,49.2,27.05,North,-999,-999.0,-999.0,56,0.00,,,0.00,WSDL version 420,2013-10-16 20:33:00,
2013-10-16 16:38:00,65.6,49.7,27.05,North,-999,-999.0,-999.0,57,0.00,,,0.00,WSDL version 420,2013-10-16 20:38:00,
2013-10-16 16:45:00,65.6,50.3,27.05,North,-999,-999.0,-999.0,57,0.00,,,0.00,WSDL version 420,2013-10-16 20:45:00,
2013-10-16 16:50:00,65.3,49.7,27.05,North,-999,-999.0,-999.0,57,0.00,,,0.00,WSDL version 420,2013-10-16 20:50:00,
2013-10-16 16:55:00,65.0,49.9,27.05,North,-999,-999.0,-999.0,58,0.00,,,0.00,WSDL version 420,2013-10-16 20:55:00,
2013-10-16 17:00:00,65.0,50.3,27.05,North,-999,-999.0,-999.0,59,0.00,,,0.00,WSDL version 420,2013-10-16 21:00:00,
2013-10-16 17:05:00,64.8,51.3,27.05,North,-999,-999.0,-999.0,62,0.00,,,0.00,WSDL version 420,2013-10-16 21:05:00,
2013-10-16 17:10:00,64.6,51.0,27.05,North,-999,-999.0,-999.0,60,0.00,,,0.00,WSDL version 420,2013-10-16 21:10:00,
2013-10-16 17:15:00,64.4,50.7,27.05,North,-999,-999.0,-999.0,62,0.00,,,0.00,WSDL version 420,2013-10-16 21:15:00,
2013-10-16 17:20:00,64.2,51.1,27.05,North,-999,-999.0,-999.0,63,0.00,,,0.00,WSDL version 420,2013-10-16 21:20:00,
2013-10-16 17:25:00,64.1,51.3,27.05,North,-999,-999.0,-999.0,63,0.00,,,0.00,WSDL version 420,2013-10-16 21:25:00,
2013-10-16 17:30:00,64.0,50.5,27.05,North,-999,-999.0,-999.0,62,0.00,,,0.00,WSDL version 420,2013-10-16 21:30:00,
2013-10-16 17:35:00,64.0,50.8,27.08,North,-999,-999.0,-999.0,62,0.00,,,0.00,WSDL version 420,2013-10-16 21:35:00,
2013-10-16 17:40:00,64.0,51.2,27.08,North,-999,-999.0,-999.0,64,0.00,,,0.00,WSDL version 420,2013-10-16 21:40:00,
2013-10-16 17:45:00,63.8,51.4,27.08,North,-999,-999.0,-999.0,64,0.00,,,0.00,WSDL version 420,2013-10-16 21:45:00,
2013-10-16 17:50:00,63.8,51.8,27.08,North,-999,-999.0,-999.0,65,0.00,,,0.00,WSDL version 420,2013-10-16 21:50:00,
2013-10-16 17:55:00,63.7,52.1,27.08,North,-999,-999.0,-999.0,66,0.00,,,0.00,WSDL version 420,2013-10-16 21:55:00,
2013-10-16 18:00:00,63.6,52.0,27.08,North,-999,-999.0,-999.0,66,0.00,,,0.00,WSDL version 420,2013-10-16 22:00:00,
2013-10-16 18:05:00,63.5,51.9,27.08,North,-999,-999.0,-999.0,66,0.00,,,0.00,WSDL version 420,2013-10-16 22:05:00,
2013-10-16 18:10:00,63.3,52.1,27.08,North,-999,-999.0,-999.0,67,0.00,,,0.00,WSDL version 420,2013-10-16 22:10:00,
2013-10-16 18:15:00,63.1,52.2,27.08,North,-999,-999.0,-999.0,67,0.00,,,0.00,WSDL version 420,2013-10-16 22:15:00,
2013-10-16 18:20:00,62.9,51.9,27.08,North,-999,-999.0,-999.0,68,0.00,,,0.00,WSDL version 420,2013-10-16 22:20:00,
2013-10-16 18:25:00,62.7,52.2,27.08,North,-999,-999.0,-999.0,69,0.00,,,0.00,WSDL version 420,2013-10-16 22:25:00,
2013-10-16 18:30:00,62.5,52.4,27.08,North,-999,-999.0,-999.0,70,0.00,,,0.00,WSDL version 420,2013-10-16 22:30:00,
2013-10-16 18:35:00,62.3,52.4,27.08,North,-999,-999.0,-999.0,70,0.00,,,0.00,WSDL version 420,2013-10-16 22:35:00,
2013-10-16 18:40:00,62.1,52.5,27.08,North,-999,-999.0,-999.0,70,0.00,,,0.00,WSDL version 420,2013-10-16 22:40:00,
2013-10-16 18:45:00,61.9,52.4,27.08,North,-999,-999.0,-999.0,71,0.00,,,0.00,WSDL version 420,2013-10-16 22:45:00,
2013-10-16 18:50:00,61.8,52.5,27.08,North,-999,-999.0,-999.0,72,0.00,,,0.00,WSDL version 420,2013-10-16 22:50:00,
2013-10-16 18:55:00,61.6,52.6,27.08,North,-999,-999.0,-999.0,73,0.00,,,0.00,WSDL version 420,2013-10-16 22:55:00,
2013-10-16 19:00:00,61.4,52.7,27.08,North,-999,-999.0,-999.0,73,0.00,,,0.00,WSDL version 420,2013-10-16 23:00:00,
2013-10-16 19:05:00,61.3,52.5,27.08,North,-999,-999.0,-999.0,73,0.00,,,0.00,WSDL version 420,2013-10-16 23:05:00,
2013-10-16 19:10:00,61.2,52.5,27.08,North,-999,-999.0,-999.0,73,0.00,,,0.00,WSDL version 420,2013-10-16 23:10:00,
2013-10-16 19:15:00,61.0,52.6,27.08,North,-999,-999.0,-999.0,74,0.00,,,0.00,WSDL version 420,2013-10-16 23:15:00,
2013-10-16 19:20:00,60.8,52.3,27.08,North,-999,-999.0,-999.0,74,0.00,,,0.00,WSDL version 420,2013-10-16 23:20:00,
2013-10-16 19:25:00,60.7,52.5,27.08,North,-999,-999.0,-999.0,75,0.00,,,0.00,WSDL version 420,2013-10-16 23:25:00,
2013-10-16 19:30:00,60.5,52.7,27.08,North,-999,-999.0,-999.0,76,0.00,,,0.00,WSDL version 420,2013-10-16 23:30:00,
2013-10-16 19:35:00,60.4,52.8,27.08,North,-999,-999.0,-999.0,76,0.00,,,0.00,WSDL version 420,2013-10-16 23:35:00,
2013-10-16 19:40:00,60.2,52.8,27.08,North,-999,-999.0,-999.0,77,0.00,,,0.00,WSDL version 420,2013-10-16 23:40:00,
2013-10-16 19:45:00,60.2,53.0,27.08,North,-999,-999.0,-999.0,77,0.00,,,0.00,WSDL version 420,2013-10-16 23:45:00,
2013-10-16 19:50:00,60.0,52.8,27.08,North,-999,-999.0,-999.0,77,0.00,,,0.00,WSDL version 420,2013-10-16 23:50:00,
2013-10-16 19:55:00,59.9,52.7,27.08,North,-999,-999.0,-999.0,78,0.00,,,0.00,WSDL version 420,2013-10-16 23:55:00,
2013-10-16 20:00:00,59.8,52.9,27.08,North,-999,-999.0,-999.0,78,0.00,,,0.00,WSDL version 420,2013-10-17 00:00:00,
2013-10-16 20:05:00,59.6,52.8,27.08,North,-999,-999.0,-999.0,78,0.00,,,0.00,WSDL version 420,2013-10-17 00:05:00,
2013-10-16 20:10:00,59.5,52.6,27.08,North,-999,-999.0,-999.0,78,0.00,,,0.00,WSDL version 420,2013-10-17 00:10:00,
2013-10-16 20:15:00,59.4,52.6,27.08,North,-999,-999.0,-999.0,79,0.00,,,0.00,WSDL version 420,2013-10-17 00:15:00,
2013-10-16 20:20:00,59.3,52.8,27.08,North,-999,-999.0,-999.0,79,0.00,,,0.00,WSDL version 420,2013-10-17 00:20:00,
2013-10-16 20:25:00,59.3,52.8,27.08,North,-999,-999.0,-999.0,79,0.00,,,0.00,WSDL version 420,2013-10-17 00:25:00,
2013-10-16 20:30:00,59.1,52.6,27.08,North,-999,-999.0,-999.0,79,0.00,,,0.00,WSDL version 420,2013-10-17 00:30:00,
2013-10-16 20:35:00,59.0,52.7,27.08,North,-999,-999.0,-999.0,80,0.00,,,0.00,WSDL version 420,2013-10-17 00:35:00,
2013-10-16 20:40:00,58.9,52.8,27.08,North,-999,-999.0,-999.0,80,0.00,,,0.00,WSDL version 420,2013-10-17 00:40:00,
2013-10-16 20:45:00,58.9,53.1,27.08,North,-999,-999.0,-999.0,81,0.00,,,0.00,WSDL version 420,2013-10-17 00:45:00,
2013-10-16 20:50:00,58.9,53.1,27.08,North,-999,-999.0,-999.0,81,0.00,,,0.00,WSDL version 420,2013-10-17 00:50:00,
2013-10-16 20:55:00,58.7,53.0,27.08,North,-999,-999.0,-999.0,81,0.00,,,0.00,WSDL version 420,2013-10-17 00:55:00,
2013-10-16 21:00:00,58.6,52.9,27.08,North,-999,-999.0,-999.0,81,0.00,,,0.00,WSDL version 420,2013-10-17 01:00:00,
2013-10-16 21:05:00,58.6,52.8,27.08,North,-999,-999.0,-999.0,81,0.00,,,0.00,WSDL version 420,2013-10-17 01:05:00,
2013-10-16 21:10:00,58.4,52.6,27.08,North,-999,-999.0,-999.0,81,0.00,,,0.00,WSDL version 420,2013-10-17 01:10:00,
2013-10-16 21:15:00,58.2,52.5,27.08,North,-999,-999.0,-999.0,82,0.00,,,0.00,WSDL version 420,2013-10-17 01:15:00,
2013-10-16 21:20:00,58.2,52.8,27.08,North,-999,-999.0,-999.0,82,0.00,,,0.00,WSDL version 420,2013-10-17 01:20:00,
2013-10-16 21:25:00,58.2,52.8,27.08,North,-999,-999.0,-999.0,82,0.00,,,0.00,WSDL version 420,2013-10-17 01:25:00,
2013-10-16 21:30:00,58.2,52.8,27.08,North,-999,-999.0,-999.0,82,0.00,,,0.00,WSDL version 420,2013-10-17 01:30:00,
2013-10-16 21:35:00,58.2,53.0,27.08,North,-999,-999.0,-999.0,83,0.00,,,0.00,WSDL version 420,2013-10-17 01:35:00,
2013-10-16 21:40:00,58.2,53.2,27.08,North,-999,-999.0,-999.0,83,0.00,,,0.00,WSDL version 420,2013-10-17 01:40:00,
2013-10-16 21:45:00,58.2,53.2,27.08,North,-999,-999.0,-999.0,83,0.00,,,0.00,WSDL version 420,2013-10-17 01:45:00,
2013-10-16 21:55:00,58.2,53.2,27.08,North,-999,-999.0,-999.0,83,0.00,,,0.00,WSDL version 420,2013-10-17 01:55:00,
2013-10-16 22:00:00,58.2,53.2,27.08,North,-999,-999.0,-999.0,83,0.00,,,0.00,WSDL version 420,2013-10-17 02:00:00,
2013-10-16 22:05:00,58.2,53.2,27.08,North,-999,-999.0,-999.0,83,0.00,,,0.00,WSDL version 420,2013-10-17 02:05:00,
2013-10-16 22:10:00,58.2,53.2,27.08,North,-999,-999.0,-999.0,83,0.00,,,0.00,WSDL version 420,2013-10-17 02:10:00,
2013-10-16 22:15:00,58.2,53.4,27.08,North,-999,-999.0,-999.0,84,0.00,,,0.00,WSDL version 420,2013-10-17 02:15:00,
2013-10-16 22:20:00,58.1,53.5,27.08,North,-999,-999.0,-999.0,84,0.00,,,0.00,WSDL version 420,2013-10-17 02:20:00,
2013-10-16 22:25:00,58.0,53.4,27.08,North,-999,-999.0,-999.0,84,0.00,,,0.00,WSDL version 420,2013-10-17 02:25:00,
2013-10-16 22:30:00,58.1,53.4,27.08,North,-999,-999.0,-999.0,84,0.00,,,0.00,WSDL version 420,2013-10-17 02:30:00,
2013-10-16 22:35:00,58.2,53.5,27.08,North,-999,-999.0,-999.0,84,0.00,,,0.00,WSDL version 420,2013-10-17 02:35:00,
2013-10-16 22:40:00,58.2,53.5,27.08,North,-999,-999.0,-999.0,84,0.00,,,0.00,WSDL version 420,2013-10-17 02:40:00,
2013-10-16 22:45:00,58.2,53.5,27.08,North,-999,-999.0,-999.0,84,0.00,,,0.00,WSDL version 420,2013-10-17 02:45:00,
2013-10-16 22:50:00,58.2,53.6,27.08,North,-999,-999.0,-999.0,86,0.00,,,0.00,WSDL version 420,2013-10-17 02:50:00,
2013-10-16 22:55:00,58.2,53.9,27.08,North,-999,-999.0,-999.0,86,0.00,,,0.00,WSDL version 420,2013-10-17 02:55:00,
2013-10-16 23:00:00,58.2,53.9,27.08,North,-999,-999.0,-999.0,86,0.00,,,0.00,WSDL version 420,2013-10-17 03:00:00,
2013-10-16 23:05:00,58.2,53.9,27.08,North,-999,-999.0,-999.0,86,0.00,,,0.00,WSDL version 420,2013-10-17 03:05:00,
2013-10-16 23:10:00,58.3,54.0,27.08,North,-999,-999.0,-999.0,86,0.00,,,0.00,WSDL version 420,2013-10-17 03:10:00,
2013-10-16 23:15:00,58.4,54.3,27.08,North,-999,-999.0,-999.0,86,0.00,,,0.00,WSDL version 420,2013-10-17 03:15:00,
2013-10-16 23:20:00,58.4,54.3,27.08,North,-999,-999.0,-999.0,87,0.00,,,0.00,WSDL version 420,2013-10-17 03:20:00,
2013-10-16 23:25:00,58.4,54.4,27.08,North,-999,-999.0,-999.0,87,0.00,,,0.00,WSDL version 420,2013-10-17 03:25:00,
2013-10-16 23:30:00,58.4,54.4,27.08,North,-999,-999.0,-999.0,87,0.00,,,0.00,WSDL version 420,2013-10-17 03:30:00,
2013-10-16 23:35:00,58.4,54.2,27.08,North,-999,-999.0,-999.0,87,0.00,,,0.00,WSDL version 420,2013-10-17 03:35:00,
2013-10-16 23:40:00,58.4,54.4,27.08,North,-999,-999.0,-999.0,87,0.00,,,0.00,WSDL version 420,2013-10-17 03:40:00,
2013-10-16 23:45:00,58.3,54.3,27.08,North,-999,-999.0,-999.0,87,0.00,,,0.00,WSDL version 420,2013-10-17 03:45:00,
2013-10-16 23:50:00,58.2,54.2,27.08,North,-999,-999.0,-999.0,87,0.00,,,0.00,WSDL version 420,2013-10-17 03:50:00,
2013-10-16 23:55:00,58.2,54.2,27.08,North,-999,-999.0,-999.0,87,0.00,,,0.00,WSDL version 420,2013-10-17 03:55:00,